CMP162 MPTO-MROC

Flight info

Callsign CMP162
Flight time 0h 49m
Altitude 36000
Route SIMAN3B SIMAN DCT PUDOS DCT ISEBA CUARE3I
Aircraft B738/M-SDE2E3FGHIRWXY/LB1

Departure

Time 2026-04-28 02:51
Airport Tocumen International Airport (MPTO)

Arrival

Time 2026-04-28 03:41
Airport Juan Santamaría International Airport (MROC)
Time Latitude Longitude Altitude Speed Heading
2026-04-28 02:51 9.16215 -79.54091 10704 ft 323 kts 277°
2026-04-28 02:51 9.16493 -79.56430 11138 ft 344 kts 277°
2026-04-28 02:52 9.16784 -79.58885 11810 ft 358 kts 277°
2026-04-28 02:52 9.17093 -79.61489 11984 ft 385 kts 277°
2026-04-28 02:52 9.17417 -79.64223 12637 ft 397 kts 277°
2026-04-28 02:52 9.17749 -79.67035 13437 ft 405 kts 277°
2026-04-28 02:53 9.18083 -79.69854 14299 ft 410 kts 277°
2026-04-28 02:53 9.18421 -79.72720 15153 ft 414 kts 277°
2026-04-28 02:53 9.18766 -79.75645 15988 ft 419 kts 277°
2026-04-28 02:53 9.19117 -79.78623 16810 ft 424 kts 277°
2026-04-28 02:54 9.19470 -79.81613 17600 ft 429 kts 277°
2026-04-28 02:54 9.19825 -79.84628 18371 ft 434 kts 277°
2026-04-28 02:54 9.20192 -79.87741 19158 ft 438 kts 277°
2026-04-28 02:54 9.20558 -79.90851 19877 ft 444 kts 277°
2026-04-28 02:55 9.20938 -79.94059 20604 ft 449 kts 277°
2026-04-28 02:55 9.21321 -79.97273 21325 ft 454 kts 277°
2026-04-28 02:55 9.21713 -80.00523 22041 ft 458 kts 277°
2026-04-28 02:55 9.22106 -80.03772 22733 ft 462 kts 276°
2026-04-28 02:56 9.22498 -80.07014 23471 ft 464 kts 276°
2026-04-28 02:56 9.22901 -80.10289 24077 ft 469 kts 276°
2026-04-28 02:56 9.23327 -80.13648 24675 ft 473 kts 276°
2026-04-28 02:56 9.23778 -80.17027 25301 ft 476 kts 276°
2026-04-28 02:57 9.24248 -80.20375 25844 ft 481 kts 277°
2026-04-28 02:57 9.24743 -80.23770 26418 ft 484 kts 277°
2026-04-28 02:57 9.25260 -80.27210 27115 ft 484 kts 276°
2026-04-28 02:57 9.25787 -80.30635 27819 ft 483 kts 276°
2026-04-28 02:58 9.26309 -80.34007 28518 ft 481 kts 276°
2026-04-28 02:58 9.26828 -80.37405 29213 ft 479 kts 275°
2026-04-28 02:58 9.27326 -80.40792 29873 ft 478 kts 275°
2026-04-28 02:58 9.27785 -80.44134 30571 ft 474 kts 274°
2026-04-28 02:59 9.28181 -80.47488 31284 ft 469 kts 273°
2026-04-28 02:59 9.28512 -80.50802 31973 ft 464 kts 272°
2026-04-28 02:59 9.28797 -80.54069 32616 ft 460 kts 271°
2026-04-28 02:59 9.29052 -80.57351 33242 ft 456 kts 271°
2026-04-28 03:00 9.29282 -80.60558 33789 ft 453 kts 271°
2026-04-28 03:00 9.29503 -80.63734 34310 ft 450 kts 271°
2026-04-28 03:00 9.29746 -80.66925 34790 ft 448 kts 272°
2026-04-28 03:00 9.30016 -80.70058 35224 ft 446 kts 272°
2026-04-28 03:01 9.30315 -80.73223 35673 ft 443 kts 273°
2026-04-28 03:01 9.30630 -80.76365 36061 ft 442 kts 273°
2026-04-28 03:01 9.30956 -80.79474 36399 ft 441 kts 273°
2026-04-28 03:01 9.31291 -80.82590 36701 ft 441 kts 274°
2026-04-28 03:02 9.31634 -80.85722 36986 ft 440 kts 274°
2026-04-28 03:02 9.31971 -80.88759 37287 ft 439 kts 274°
2026-04-28 03:02 9.32316 -80.91846 37534 ft 439 kts 274°
2026-04-28 03:02 9.32664 -80.94936 37647 ft 441 kts 274°
2026-04-28 03:03 9.33013 -80.98025 37743 ft 443 kts 274°
2026-04-28 03:03 9.33354 -81.01032 37897 ft 443 kts 274°
2026-04-28 03:03 9.33694 -81.04032 37912 ft 444 kts 274°
2026-04-28 03:04 9.34392 -81.10156 37912 ft 441 kts 274°
2026-04-28 03:04 9.35092 -81.16303 37909 ft 441 kts 274°
2026-04-28 03:05 9.35792 -81.22461 37902 ft 441 kts 274°
2026-04-28 03:05 9.36495 -81.28646 37895 ft 441 kts 274°
2026-04-28 03:06 9.37201 -81.34860 37888 ft 440 kts 274°
2026-04-28 03:06 9.37814 -81.40260 37885 ft 440 kts 274°
2026-04-28 03:07 9.38396 -81.45396 37885 ft 440 kts 274°
2026-04-28 03:07 9.39023 -81.50938 37885 ft 440 kts 274°
2026-04-28 03:08 9.39657 -81.56553 37891 ft 440 kts 274°
2026-04-28 03:08 9.40155 -81.60970 37913 ft 440 kts 274°
2026-04-28 03:09 9.40771 -81.66441 37912 ft 436 kts 274°
2026-04-28 03:09 9.41357 -81.71645 37912 ft 436 kts 274°
2026-04-28 03:10 9.42044 -81.77769 37911 ft 437 kts 274°
2026-04-28 03:10 9.42691 -81.83532 37912 ft 437 kts 274°
2026-04-28 03:11 9.43351 -81.89415 37911 ft 437 kts 274°
2026-04-28 03:11 9.44038 -81.95558 37912 ft 437 kts 274°
2026-04-28 03:12 9.44722 -82.01680 37912 ft 436 kts 274°
2026-04-28 03:12 9.45410 -82.07785 37985 ft 435 kts 274°
2026-04-28 03:13 9.46091 -82.13894 37999 ft 437 kts 274°
2026-04-28 03:13 9.46769 -82.20026 37999 ft 436 kts 274°
2026-04-28 03:14 9.47444 -82.26128 37999 ft 436 kts 274°
2026-04-28 03:14 9.48121 -82.32246 38000 ft 436 kts 274°
2026-04-28 03:15 9.48794 -82.38331 38000 ft 436 kts 274°
2026-04-28 03:15 9.49468 -82.44434 37999 ft 436 kts 274°
2026-04-28 03:16 9.50142 -82.50551 38000 ft 437 kts 274°
2026-04-28 03:16 9.50810 -82.56619 38000 ft 437 kts 274°
2026-04-28 03:17 9.51485 -82.62759 38000 ft 437 kts 274°
2026-04-28 03:17 9.52154 -82.68853 37999 ft 437 kts 274°
2026-04-28 03:18 9.52802 -82.74778 38000 ft 437 kts 273°
2026-04-28 03:18 9.53472 -82.80898 37999 ft 437 kts 273°
2026-04-28 03:19 9.54274 -82.87000 37998 ft 440 kts 278°
2026-04-28 03:19 9.55692 -82.93020 38000 ft 441 kts 281°
2026-04-28 03:20 9.57216 -82.99014 37994 ft 431 kts 281°
2026-04-28 03:20 9.57960 -83.01920 37843 ft 417 kts 281°
2026-04-28 03:20 9.58674 -83.04710 37265 ft 409 kts 281°
2026-04-28 03:21 9.59380 -83.07474 36681 ft 405 kts 281°
2026-04-28 03:21 9.60086 -83.10252 36112 ft 411 kts 281°
2026-04-28 03:21 9.60833 -83.13004 35483 ft 414 kts 284°
2026-04-28 03:21 9.61745 -83.15714 34858 ft 410 kts 286°
2026-04-28 03:22 9.62722 -83.18458 34202 ft 417 kts 286°
2026-04-28 03:22 9.63707 -83.21201 33518 ft 415 kts 286°
2026-04-28 03:22 9.64692 -83.23946 32856 ft 421 kts 287°
2026-04-28 03:22 9.65690 -83.26739 32145 ft 430 kts 287°
2026-04-28 03:23 9.66697 -83.29561 31409 ft 427 kts 287°
2026-04-28 03:23 9.67720 -83.32431 30673 ft 436 kts 287°
2026-04-28 03:23 9.68747 -83.35318 29892 ft 439 kts 287°
2026-04-28 03:23 9.69768 -83.38185 29192 ft 430 kts 287°
2026-04-28 03:24 9.70780 -83.41031 28672 ft 427 kts 287°
2026-04-28 03:24 9.71785 -83.43895 28046 ft 431 kts 285°
2026-04-28 03:24 9.72286 -83.46845 27568 ft 420 kts 270°
2026-04-28 03:24 9.72288 -83.49767 27338 ft 417 kts 266°
2026-04-28 03:25 9.72196 -83.52719 26949 ft 421 kts 266°
2026-04-28 03:25 9.72114 -83.55699 26190 ft 417 kts 267°
2026-04-28 03:25 9.72045 -83.58617 25434 ft 410 kts 267°
2026-04-28 03:25 9.71955 -83.61461 24740 ft 402 kts 267°
2026-04-28 03:26 9.71859 -83.64297 24131 ft 411 kts 268°
2026-04-28 03:26 9.71762 -83.67168 23518 ft 416 kts 268°
2026-04-28 03:26 9.71663 -83.70113 22882 ft 413 kts 268°
2026-04-28 03:26 9.71566 -83.73038 22259 ft 418 kts 268°
2026-04-28 03:27 9.71467 -83.76004 21712 ft 431 kts 268°
2026-04-28 03:27 9.71367 -83.79037 21157 ft 431 kts 268°
2026-04-28 03:27 9.71266 -83.82076 20599 ft 428 kts 268°
2026-04-28 03:27 9.71166 -83.85102 20040 ft 425 kts 268°
2026-04-28 03:28 9.71066 -83.88090 19487 ft 421 kts 268°
2026-04-28 03:28 9.70965 -83.91037 18933 ft 416 kts 268°
2026-04-28 03:28 9.70863 -83.93951 18383 ft 414 kts 268°
2026-04-28 03:28 9.70761 -83.96886 17831 ft 413 kts 269°
2026-04-28 03:29 9.70667 -83.99790 17326 ft 412 kts 269°
2026-04-28 03:29 9.70583 -84.02671 16829 ft 410 kts 269°
2026-04-28 03:29 9.70498 -84.05573 16321 ft 407 kts 269°
2026-04-28 03:29 9.70408 -84.08433 15817 ft 403 kts 268°
2026-04-28 03:30 9.70314 -84.11182 15313 ft 390 kts 268°
2026-04-28 03:30 9.70216 -84.13903 14848 ft 374 kts 268°
2026-04-28 03:30 9.70226 -84.16458 14415 ft 358 kts 279°
2026-04-28 03:30 9.70812 -84.18870 14043 ft 344 kts 289°
2026-04-28 03:31 9.71604 -84.21143 13672 ft 341 kts 291°
2026-04-28 03:31 9.72407 -84.23406 13296 ft 340 kts 290°
2026-04-28 03:31 9.73180 -84.25661 12920 ft 336 kts 290°
2026-04-28 03:31 9.73916 -84.27868 12576 ft 322 kts 289°
2026-04-28 03:32 9.74606 -84.29970 12248 ft 309 kts 289°
2026-04-28 03:32 9.75266 -84.31997 11922 ft 298 kts 289°
2026-04-28 03:32 9.75904 -84.33967 11593 ft 287 kts 289°
2026-04-28 03:32 9.76516 -84.35862 11266 ft 278 kts 289°
2026-04-28 03:33 9.77114 -84.37714 10964 ft 268 kts 289°
2026-04-28 03:33 9.77695 -84.39482 10707 ft 257 kts 294°
2026-04-28 03:33 9.78701 -84.40908 10416 ft 245 kts 321°
2026-04-28 03:33 9.80091 -84.41866 10097 ft 239 kts 333°
2026-04-28 03:34 9.81548 -84.42645 9765 ft 238 kts 334°
2026-04-28 03:34 9.83020 -84.43445 9405 ft 237 kts 333°
2026-04-28 03:34 9.84441 -84.44266 9062 ft 235 kts 332°
2026-04-28 03:34 9.85915 -84.44923 8623 ft 230 kts 356°
2026-04-28 03:35 9.87441 -84.44710 8185 ft 224 kts 24°
2026-04-28 03:35 9.88743 -84.43892 7796 ft 216 kts 42°
2026-04-28 03:35 9.89740 -84.42828 7302 ft 214 kts 51°
2026-04-28 03:35 9.90682 -84.41640 6786 ft 213 kts 52°
2026-04-28 03:36 9.91582 -84.40462 6279 ft 212 kts 55°
2026-04-28 03:36 9.92350 -84.39190 5870 ft 205 kts 63°
2026-04-28 03:36 9.92866 -84.38100 5857 ft 187 kts 66°
2026-04-28 03:36 9.93321 -84.37004 5885 ft 183 kts 68°
2026-04-28 03:37 9.93790 -84.35803 5697 ft 184 kts 69°
2026-04-28 03:37 9.94180 -84.34775 5468 ft 180 kts 69°
2026-04-28 03:37 9.94410 -84.34164 5341 ft 179 kts 69°
2026-04-28 03:37 9.94692 -84.33412 5184 ft 179 kts 69°
2026-04-28 03:38 9.95050 -84.32459 4985 ft 179 kts 69°
2026-04-28 03:38 9.95421 -84.31471 4875 ft 177 kts 69°
2026-04-28 03:38 9.95778 -84.30521 4770 ft 183 kts 69°
2026-04-28 03:38 9.96031 -84.29846 4599 ft 182 kts 69°
2026-04-28 03:39 9.96443 -84.28748 4403 ft 170 kts 69°
2026-04-28 03:39 9.96783 -84.27839 4189 ft 158 kts 69°
2026-04-28 03:39 9.97079 -84.27050 4064 ft 153 kts 69°
2026-04-28 03:39 9.97408 -84.26168 3868 ft 153 kts 69°
2026-04-28 03:40 9.97745 -84.25272 3686 ft 153 kts 69°
2026-04-28 03:40 9.98156 -84.24174 3459 ft 152 kts 69°
2026-04-28 03:40 9.98504 -84.23254 3277 ft 151 kts 69°
2026-04-28 03:41 9.99251 -84.21253 3012 ft 108 kts 70°
2026-04-28 03:41 9.99446 -84.20737 3011 ft 50 kts 69°
2026-04-28 03:41 9.99558 -84.20435 3011 ft 41 kts 70°
2026-04-28 03:41 9.99635 -84.20226 3011 ft 30 kts 70°
2026-04-28 03:42 9.99704 -84.20128 3011 ft 9 kts 359°
2026-04-28 03:42 9.99768 -84.20124 3011 ft 11 kts 44°
2026-04-28 03:42 9.99801 -84.20064 3011 ft 6 kts 31°
2026-04-28 03:42 9.99843 -84.20076 3011 ft 7 kts 339°
2026-04-28 03:43 9.99865 -84.20084 3011 ft 0 kts 341°
2026-04-28 03:43 9.99867 -84.20084 3011 ft 0 kts 341°